Left ArrowRight Arrow

Hourly Observations for April 27, 2019

Temp ( °F °C ) Dew Point ( °F °C ) Humidity (%) Winds ( mph kmh ) Pressure ( in mb ) Visibility ( mi km ) Precip ( " mm )
12:53 am 00:53 Cloudy 76 24.4 68 20 77 77 S 3 6 29.96 1015 10 16 0.00 0.00
1:53 am 01:53 Partly Cloudy 75 23.9 68 20 79 79 E 3 6 29.94 1014 10 16 0.00 0.00
2:53 am 02:53 Cloudy 75 23.9 68 20 79 79 ESE 3 6 29.93 1014 10 16 0.00 0.00
3:53 am 03:53 Mostly Cloudy 75 23.9 67 19.4 76 76 ENE 3 6 29.93 1013 10 16 0.00 0.00
4:53 am 04:53 Mostly Cloudy 75 23.9 68 20 79 79 W 7 11 29.93 1014 10 16 0.00 0.00
5:53 am 05:53 Mostly Cloudy 75 23.9 70 21.1 84 84 W 10 17 29.93 1014 10 16 0.00 0.00
6:53 am 06:53 Mostly Cloudy 74 23.3 70 21.1 88 88 NE 3 6 29.95 1014 10 16 0.00 0.00
7:00 am 07:00 Cloudy 75 23.9 70 21.1 84 84 NE 7 11 29.95 1014 10 16 0.00 0.00
7:42 am 07:42 Mostly Cloudy with Light Rain 75 24 70 21 83 83 NE 6 9 29.96 1014 10 16 0.00 0.00
7:53 am 07:53 Mostly Cloudy with Light Rain 76 24.4 70 21.1 82 82 ENE 5 7 29.97 1015 10 16 0.00 0.03
8:00 am 08:00 Mostly Cloudy with Light Rain 76 24.4 69 20.6 79 79 NNE 6 9 29.97 1015 10 16 0.00 0.03
8:12 am 08:12 Cloudy with Light Rain 74 23.3 68 20 82 82 NNE 3 6 29.97 1015 2 3 0.00 0.00
8:20 am 08:20 Cloudy with Light Rain 75 23.9 69 20.6 82 82 Calm 29.97 1015 4 6 0.00 0.00
8:33 am 08:33 Cloudy with Light Rain 75 23.9 71 21.7 88 88 SW 3 6 29.97 1015 6 10 0.00 0.00
8:46 am 08:46 Mostly Cloudy with Light Rain 73 23 70 21 89 89 W 17 28 29.98 1015 4 6 0.00 0.00
8:53 am 08:53 Mostly Cloudy with Rain 73 22.8 70 21.1 90 90 WNW 9 15 29.98 1015 4 6 0.00 0.00
9:00 am 09:00 Cloudy with Rain 73 22.8 70 21.1 90 90 VRB 7 11 29.98 1015 4 6 0.03 0.76
9:11 am 09:11 Cloudy with Heavy Rain 73 22.8 70 21.1 90 90 WSW 5 7 29.98 1015 3 5 0.07 1.78
9:32 am 09:32 Cloudy with Heavy Rain 72 22 70 21 94 94 SSW 7 11 29.98 1015 2 3 0.00 0.00
9:53 am 09:53 Cloudy with Heavy Rain 72 22.2 70 21.1 94 94 SSW 7 11 29.97 1015 5 8 0.41 10.41
10:23 am 10:23 Cloudy with Rain 72 22 72 22 100 100 S 8 13 29.97 1015 4 6 0.00 0.00
10:53 am 10:53 Cloudy with Rain 73 22.8 71 21.7 94 94 SSE 3 6 29.97 1015 4 6 0.03 0.76
11:00 am 11:00 Mostly Cloudy with Rain 73 22.8 71 21.7 94 94 Calm 29.97 1015 7 11 0.01 0.25
11:53 am 11:53 Mostly Cloudy with Light Rain 77 25 70 21.1 79 79 W 8 13 29.96 1015 10 16 0.01 0.25
12:00 pm 12:00 Mostly Cloudy with Light Rain 78 25.6 70 21.1 76 76 W 10 17 29.96 1014 10 16 0.00 0.03
12:50 pm 12:50 Mostly Cloudy with Light Rain 79 26 70 21 74 74 W 13 20 29.94 1014 10 16 0.00 0.03
12:53 pm 12:53 Mostly Cloudy with Light Rain 79 26.1 71 21.7 77 77 W 14 22 29.93 1014 10 16 0.00 0.03
1:53 pm 13:53 Mostly Cloudy with Light Rain 80 26.7 70 21.1 71 71 W 15 24 29.91 1013 10 16 0.00 0.03
2:07 pm 14:07 Mostly Cloudy 79 26 72 22 79 79 WSW 14 22 29.91 1013 10 16 0.00 0.00
2:15 pm 14:15 Cloudy 79 26.1 71 21.7 77 77 W 16 26 29.91 1013 10 16 0.00 0.03
2:53 pm 14:53 Mostly Cloudy 79 26.1 70 21.1 74 74 WSW 13 20 29.90 1013 10 16 0.00 0.03
3:53 pm 15:53 Mostly Cloudy 79 26.1 69 20.6 72 72 WSW 8 13 29.90 1012 10 16 0.00 0.00
4:53 pm 16:53 Mostly Cloudy 78 25.6 70 21.1 76 76 WSW 12 19 29.91 1013 10 16 0.00 0.00
5:53 pm 17:53 Mostly Cloudy 78 25.6 70 21.1 76 76 W 13 20 29.90 1013 10 16 0.00 0.00
6:53 pm 18:53 Cloudy 77 25 68 20 74 74 W 10 17 29.92 1013 10 16 0.00 0.00
7:53 pm 19:53 Cloudy 77 25 70 21.1 79 79 W 10 17 29.95 1014 10 16 0.00 0.00
8:53 pm 20:53 Cloudy 76 24.4 70 21.1 82 82 W 8 13 29.96 1015 10 16 0.00 0.00
9:53 pm 21:53 Cloudy 77 25 69 20.6 77 77 W 8 13 29.97 1015 10 16 0.00 0.00
10:53 pm 22:53 Cloudy 75 24 70 21 83 83 W 13 20 29.97 1015 10 16 0.00 0.00
11:53 pm 23:53 Cloudy with Light Rain 73 23 70 21 89 89 WSW 14 22 29.96 1014 9 14 0.00 0.00

Powered by Vaisala Xweather